Flag for Germany Weather past 2 weeks in Erkrath, North Rhine-Westphalia, Germany

Now
72 °F

Passing clouds.


Feels Like: 77 °F
Forecast: 51 / 74 °F
Wind: 3 mph from Northeast

Location: Duesseldorf


UV Index: 3 (Moderate)

Visibility: N/A


Pressure: 30.01 "Hg

Humidity: 44%

Dew point: 48 °F

Location of ErkrathLocation

Historic Weather in Erkrath

°F

Erkrath temperature yesterday

Maximum temperature yesterday: 72 °F (at 5:20 PM)
Minimum temperature yesterday: 46 °F (at 4:50 AM)
Average temperature yesterday: 59 °F

Past Weeks' High & Low Weather Summary

 TemperatureHumidityPressure
High72 °F (Apr 20, 1:50 PM)94% (Apr 22, 6:50 AM)30.45 "Hg (Apr 22, 6:50 AM)
Low30 °F (Apr 16, 4:50 AM)24% (Apr 17, 4:50 PM)29.62 "Hg (Apr 21, 5:20 PM)
Average53 °F65%30.04 "Hg
* Reported Apr 9 3:20 PM — Apr 24 3:20 PM, Erkrath, Weather by CustomWeather, © 2014

Note: Actual official high and low records may vary slightly from our data, if they occured in-between our weather recording intervals... More about our weather records

Advertising

Historic Weather Conditions — Data for Previous 24 hours

 ConditionsComfort  
Time TempWeatherWind HumidityBarometerVisibility
3:20 PM
Apr 24
72 °FPassing clouds.3 mph44%30.04 "HgN/A
2:50 PM70 °FScattered clouds.1 mph50%30.04 "HgN/A
2:20 PM68 °FBroken clouds.2 mph53%30.07 "HgN/A
1:50 PM66 °FBroken clouds.2 mph56%30.07 "HgN/A
1:20 PM66 °FBroken clouds.2 mph52%30.07 "HgN/A
12:50 PM64 °FBroken clouds.5 mph56%30.07 "HgN/A
12:20 PM66 °FBroken clouds.6 mph52%30.09 "HgN/A
11:50 AM64 °FLight rain. Broken clouds.6 mph60%30.09 "HgN/A
11:20 AM64 °FScattered clouds.6 mph60%30.09 "HgN/A
10:50 AM64 °FScattered clouds.2 mph56%30.09 "HgN/A
10:20 AM63 °FSunny.6 mph59%30.09 "Hg10 mi
9:20 AM57 °FSunny.6 mph72%30.09 "Hg10 mi
8:50 AM55 °FSunny.5 mph77%30.09 "Hg10 mi
8:20 AM52 °FSunny.2 mph88%30.09 "Hg10 mi
7:50 AM50 °FSunny.2 mph94%30.09 "Hg10 mi
7:20 AM48 °FSunny.3 mph94%30.09 "Hg10 mi
6:50 AM48 °FFog.3 mph87%30.09 "HgN/A
6:20 AM46 °FFog.6 mph93%30.09 "HgN/A
5:50 AM48 °FFog.3 mph87%30.07 "HgN/A
5:20 AM48 °FFog.3 mph87%30.09 "HgN/A
4:50 AM50 °FFog.3 mph88%30.09 "HgN/A
4:20 AM50 °FClear.2 mph88%30.09 "Hg10 mi
3:50 AM52 °FClear.2 mph82%30.09 "Hg10 mi
3:20 AM52 °FClear.2 mph82%30.09 "Hg10 mi
2:50 AM52 °FClear.5 mph82%30.09 "Hg10 mi
2:20 AM52 °FClear.5 mph82%30.09 "Hg10 mi
1:50 AM52 °FFog.2 mph88%30.09 "HgN/A
1:20 AM54 °FClear.1 mph77%30.09 "Hg10 mi
12:20 AM55 °FClear.7 mph77%30.09 "Hg10 mi
11:50 PM
Apr 23
55 °FClear.7 mph77%30.09 "Hg10 mi
11:20 PM57 °FClear.6 mph72%30.09 "Hg10 mi
10:50 PM57 °FClear.3 mph72%30.09 "Hg10 mi
10:20 PM57 °FClear.7 mph72%30.09 "Hg10 mi
9:50 PM57 °FClear.7 mph72%30.09 "Hg10 mi
9:20 PM59 °FScattered clouds.8 mph68%30.09 "HgN/A
8:50 PM63 °FScattered clouds.7 mph59%30.07 "HgN/A
8:20 PM64 °FScattered clouds.9 mph56%30.07 "HgN/A
7:50 PM68 °FPassing clouds.5 mph46%30.07 "HgN/A
7:20 PM68 °FPassing clouds.6 mph43%30.07 "HgN/A
6:50 PM72 °FPassing clouds.2 mph33%30.04 "HgN/A
6:20 PM72 °FPassing clouds.5 mph33%30.07 "HgN/A
5:50 PM72 °FPassing clouds.3 mph33%30.04 "HgN/A
5:20 PM72 °FPassing clouds.5 mph33%30.07 "HgN/A
4:50 PM70 °FPassing clouds.3 mph38%30.07 "HgN/A
4:20 PM68 °FPassing clouds.7 mph43%30.07 "HgN/A
Weather by CustomWeather, © 2014

See weather overview